EN

Hourly Weather Novokrestyanovskoe

Today, 18 May, Tuesday

Time Temperature Precipitation Wind Pressure Humidity
00:00 +18°C° 0 mm 1 mps 753 mmHg 76%
01:00 +18°C° 0 mm 3 mps 753 mmHg 77%
02:00 +19°C° 0 mm 6 mps 754 mmHg 78%
03:00 +20°C° 0 mm 8 mps 754 mmHg 79%
04:00 +20°C° 0 mm 8 mps 755 mmHg 78%
05:00 +20°C° 0 mm 8 mps 755 mmHg 77%
06:00 +20°C° 0 mm 8 mps 756 mmHg 76%
07:00 +21°C° 0.1 mm 8 mps 756 mmHg 73%
08:00 +21°C° 0.1 mm 8 mps 756 mmHg 70%
09:00 +22°C° 0.1 mm 9 mps 757 mmHg 66%
10:00 +23°C° 0 mm 8 mps 757 mmHg 62%
11:00 +24°C° 0 mm 8 mps 757 mmHg 58%
12:00 +26°C° 0 mm 8 mps 758 mmHg 54%
13:00 +27°C° 0 mm 7 mps 758 mmHg 52%
14:00 +27°C° 0 mm 7 mps 758 mmHg 50%
15:00 +27°C° 0 mm 7 mps 758 mmHg 48%
16:00 +27°C° 0 mm 6 mps 758 mmHg 49%
17:00 +27°C° 0 mm 5 mps 758 mmHg 50%
18:00 +26°C° 0 mm 4 mps 758 mmHg 50%
19:00 +25°C° 0 mm 4 mps 758 mmHg 55%
20:00 +22°C° 0 mm 3 mps 758 mmHg 60%
21:00 +20°C° 0 mm 3 mps 759 mmHg 64%
22:00 +19°C° 0 mm 3 mps 759 mmHg 66%
23:00 +19°C° 0 mm 3 mps 758 mmHg 68%

Tomorrow, 19 May, Wednesday

Time Temperature Precipitation Wind Pressure Humidity
00:00 +18°C° 0 mm 3 mps 758 mmHg 70%
01:00 +18°C° 0 mm 2 mps 758 mmHg 72%
02:00 +17°C° 0 mm 2 mps 758 mmHg 74%
03:00 +16°C° 0 mm 1 mps 757 mmHg 77%
04:00 +18°C° 0 mm 1 mps 757 mmHg 74%
05:00 +19°C° 0 mm 1 mps 757 mmHg 72%
06:00 +17°C° 0 mm 0 mps 757 mmHg 70%
07:00 +21°C° 0 mm 1 mps 757 mmHg 61%
08:00 +24°C° 0 mm 1 mps 757 mmHg 53%
09:00 +26°C° 0 mm 2 mps 756 mmHg 45%
10:00 +27°C° 0 mm 2 mps 756 mmHg 40%
11:00 +28°C° 0 mm 3 mps 757 mmHg 35%
12:00 +30°C° 0 mm 3 mps 757 mmHg 31%
13:00 +30°C° 0 mm 4 mps 757 mmHg 30%
14:00 +32°C° 0 mm 4 mps 757 mmHg 30%
15:00 +32°C° 0 mm 5 mps 757 mmHg 29%
16:00 +29°C° 0.1 mm 6 mps 758 mmHg 37%
17:00 +27°C° 0.1 mm 7 mps 758 mmHg 44%
18:00 +24°C° 0.1 mm 8 mps 759 mmHg 52%
19:00 +22°C° 1.4 mm 7 mps 760 mmHg 61%
20:00 +20°C° 1.4 mm 5 mps 761 mmHg 70%
21:00 +18°C° 1.4 mm 4 mps 762 mmHg 79%
22:00 +17°C° 0 mm 5 mps 762 mmHg 80%
23:00 +17°C° 0 mm 5 mps 762 mmHg 81%

Day after tomorrow, 20 May, Thursday

Time Temperature Precipitation Wind Pressure Humidity
00:00 +16°C° 0 mm 5 mps 762 mmHg 81%
01:00 +17°C° 0 mm 4 mps 762 mmHg 82%
02:00 +17°C° 0 mm 4 mps 762 mmHg 84%
03:00 +16°C° 0 mm 3 mps 762 mmHg 85%
04:00 +17°C° 0 mm 3 mps 763 mmHg 81%
05:00 +17°C° 0 mm 2 mps 763 mmHg 77%
06:00 +17°C° 0 mm 2 mps 763 mmHg 73%
07:00 +19°C° 0 mm 2 mps 763 mmHg 63%
08:00 +20°C° 0 mm 3 mps 763 mmHg 53%
09:00 +22°C° 0 mm 3 mps 763 mmHg 43%
10:00 +24°C° 0 mm 3 mps 763 mmHg 40%
11:00 +25°C° 0 mm 4 mps 763 mmHg 36%
12:00 +27°C° 0 mm 4 mps 762 mmHg 33%
13:00 +27°C° 0 mm 5 mps 762 mmHg 32%
14:00 +27°C° 0 mm 6 mps 762 mmHg 31%
15:00 +27°C° 0 mm 6 mps 762 mmHg 31%
16:00 +26°C° 0 mm 6 mps 762 mmHg 35%
17:00 +23°C° 0 mm 6 mps 762 mmHg 40%
18:00 +22°C° 0 mm 5 mps 762 mmHg 45%
19:00 +20°C° 0 mm 5 mps 762 mmHg 54%
20:00 +18°C° 0 mm 4 mps 762 mmHg 64%
21:00 +15°C° 0 mm 4 mps 762 mmHg 73%
22:00 +15°C° 0 mm 4 mps 762 mmHg 75%
23:00 +15°C° 0 mm 4 mps 762 mmHg 77%

21 May, Friday

Time Temperature Precipitation Wind Pressure Humidity
00:00 +15°C° 0 mm 4 mps 761 mmHg 78%
01:00 +15°C° 0 mm 4 mps 761 mmHg 77%
02:00 +15°C° 0 mm 5 mps 761 mmHg 75%
03:00 +15°C° 0 mm 5 mps 761 mmHg 74%
04:00 +16°C° 0 mm 6 mps 761 mmHg 71%
05:00 +17°C° 0 mm 6 mps 761 mmHg 68%
06:00 +18°C° 0 mm 7 mps 761 mmHg 64%
07:00 +21°C° 0 mm 8 mps 760 mmHg 58%
08:00 +23°C° 0 mm 8 mps 760 mmHg 51%
09:00 +27°C° 0 mm 9 mps 760 mmHg 45%
10:00 +27°C° 0 mm 10 mps 760 mmHg 43%
11:00 +28°C° 0 mm 10 mps 759 mmHg 40%
12:00 +29°C° 0 mm 10 mps 759 mmHg 38%
13:00 +29°C° 0 mm 10 mps 759 mmHg 39%
14:00 +29°C° 0 mm 11 mps 759 mmHg 40%
15:00 +28°C° 0 mm 11 mps 759 mmHg 41%
16:00 +27°C° 0 mm 10 mps 759 mmHg 45%
17:00 +26°C° 0 mm 9 mps 759 mmHg 49%
18:00 +23°C° 0 mm 9 mps 759 mmHg 53%
19:00 +22°C° 0 mm 8 mps 759 mmHg 56%
20:00 +21°C° 0 mm 8 mps 759 mmHg 58%
21:00 +20°C° 0 mm 8 mps 759 mmHg 61%
22:00 +20°C° 0 mm 7 mps 759 mmHg 62%
23:00 +20°C° 0 mm 7 mps 759 mmHg 63%

22 May, Saturday

Time Temperature Precipitation Wind Pressure Humidity
00:00 +20°C° 0 mm 6 mps 758 mmHg 64%
01:00 +20°C° 0 mm 6 mps 758 mmHg 65%
02:00 +19°C° 0 mm 6 mps 758 mmHg 67%
03:00 +19°C° 0 mm 5 mps 758 mmHg 68%
04:00 +20°C° 0 mm 6 mps 758 mmHg 69%
05:00 +20°C° 0 mm 6 mps 758 mmHg 69%
06:00 +20°C° 0 mm 6 mps 758 mmHg 70%
07:00 +23°C° 0 mm 7 mps 758 mmHg 62%
08:00 +26°C° 0 mm 8 mps 757 mmHg 55%
09:00 +29°C° 0 mm 8 mps 757 mmHg 48%
10:00 +31°C° 0 mm 9 mps 757 mmHg 44%
11:00 +32°C° 0 mm 10 mps 756 mmHg 40%
12:00 +33°C° 0 mm 10 mps 756 mmHg 37%
13:00 +33°C° 0 mm 11 mps 756 mmHg 38%
14:00 +32°C° 0 mm 11 mps 755 mmHg 38%
15:00 +32°C° 0 mm 11 mps 755 mmHg 39%
16:00 +29°C° 0 mm 10 mps 755 mmHg 43%
17:00 +28°C° 0 mm 10 mps 755 mmHg 47%
18:00 +26°C° 0 mm 9 mps 754 mmHg 51%
19:00 +24°C° 0 mm 8 mps 755 mmHg 53%
20:00 +23°C° 0 mm 7 mps 755 mmHg 55%
21:00 +22°C° 0 mm 7 mps 755 mmHg 57%
22:00 +21°C° 0 mm 6 mps 755 mmHg 62%
23:00 +20°C° 0 mm 5 mps 755 mmHg 67%

23 May, Sunday

Time Temperature Precipitation Wind Pressure Humidity
00:00 +19°C° 0 mm 3 mps 755 mmHg 71%
01:00 +19°C° 0 mm 3 mps 755 mmHg 74%
02:00 +18°C° 0 mm 3 mps 754 mmHg 76%
03:00 +18°C° 0 mm 3 mps 754 mmHg 79%
04:00 +19°C° 0 mm 3 mps 754 mmHg 76%
05:00 +20°C° 0 mm 2 mps 754 mmHg 73%
06:00 +21°C° 0 mm 2 mps 754 mmHg 71%
07:00 +24°C° 0 mm 3 mps 754 mmHg 63%
08:00 +26°C° 0 mm 3 mps 754 mmHg 56%
09:00 +29°C° 0 mm 4 mps 754 mmHg 48%
10:00 +30°C° 0 mm 5 mps 753 mmHg 43%
11:00 +32°C° 0 mm 6 mps 753 mmHg 39%
12:00 +34°C° 0 mm 7 mps 753 mmHg 34%
13:00 +33°C° 0 mm 9 mps 753 mmHg 32%
14:00 +33°C° 0 mm 10 mps 752 mmHg 30%
15:00 +33°C° 0 mm 11 mps 752 mmHg 28%
16:00 +32°C° 0 mm 12 mps 752 mmHg 28%
17:00 +31°C° 0 mm 12 mps 752 mmHg 27%
18:00 +28°C° 0 mm 13 mps 751 mmHg 27%
19:00 +28°C° 0 mm 12 mps 752 mmHg 26%
20:00 +28°C° 0 mm 12 mps 752 mmHg 24%
21:00 +28°C° 0 mm 11 mps 752 mmHg 23%
22:00 +27°C° 0 mm 11 mps 752 mmHg 26%
23:00 +26°C° 0 mm 10 mps 752 mmHg 28%
Show more

We Need Your Consent

Meteoprog and our Service Providers may store and access personal data such as cookies, device identifiers or other similar technologies on your device and process such data to personalise content and ads, as well as provide social media features and to analyse the traffic.

  • Store and/or access information on your device

    Cookies, device identifiers or other information can be stored or accessed on your device for the purposes indicated above.

  • Personalised ads and content, ad and content measurement, audience insights, and products development

    Ads and content can be personalised based on a profile. More data can be added to better personalise ads and content. Ad and content performance can be measured. Insights about the audience who saw the ads and content can be derived. Such data can be used to develop or improve user’s experience, systems and software.

By clicking ‘I Agree’ you will allow the use of indicated cookies, device identifiers, web beacons or other similar technologies. Your settings can be changed in the browser on your device.

For certain purposes, legitimate interests may be relied on, rather than consent. You can read more about this in our Privacy and Cookie Policy.